Wind_Speed
23 22 20 19 18 19 21 23 23 22 20 19 18 18 18 17 18 18 19 20 20 20 20 19 19 19 19 19 19 18 17 16 14 13 12 11 12 13 14 15 16 16 16 16 15 15 15 16 17 19 20 21 22 24 25 26 27 28 28 29 30 30 31 32 34 34 35 35 36
23 22 20 19 19 19 20 21 22 21 19 18 17 17 18 18 19 20 20 20 20 20 20 20 20 20 20 19 18 17 16 15 13 12 12 12 13 14 15 16 17 17 17 16 16 17 17 18 19 20 21 22 23 24 25 25 25 25 26 26 27 28 29 30 31 33 34 35 35
21 20 19 18 18 18 19 19 20 20 19 17 17 17 18 19 20 21 21 21 20 20 21 21 21 21 20 19 17 16 15 14 13 13 13 13 14 15 15 16 17 17 16 16 17 18 19 20 20 20 21 21 21 21 21 21 21 22 22 23 24 25 25 26 27 29 30 31 32
19 18 18 18 18 18 18 19 20 20 19 17 17 17 18 19 20 21 21 20 20 22 23 23 23 22 20 19 18 17 16 15 15 14 14 15 15 15 16 16 16 16 17 18 19 19 19 19 20 20 20 20 19 19 19 20 21 20 20 21 22 23 23 24 25 25 27 28 29
18 18 18 18 17 17 18 19 19 19 19 18 18 18 18 18 19 20 20 21 22 23 23 23 22 21 20 19 18 17 16 16 16 15 15 16 16 16 15 15 16 17 18 19 19 19 19 19 20 21 21 21 22 22 22 23 22 21 20 20 21 21 21 21 22 23 23 25 25
18 18 18 17 16 16 16 17 17 17 18 19 19 19 18 18 19 20 21 21 22 22 22 21 20 19 19 18 18 17 17 17 16 16 16 16 15 15 15 16 17 17 17 18 18 19 20 21 21 22 23 23 24 24 23 22 20 18 17 17 18 18 18 18 19 18 18 18 18
17 17 17 16 15 14 13 14 14 15 16 17 18 18 18 19 20 20 20 20 20 20 20 19 18 18 18 18 18 18 17 17 16 15 15 14 15 15 16 16 16 16 17 17 18 19 19 20 20 21 22 22 21 20 18 16 14 13 13 13 14 14 13 13 13 12 12 11 10
16 16 15 15 14 14 13 12 13 13 14 14 14 15 16 18 18 19 19 18 18 18 18 16 16 16 17 17 17 17 16 15 14 14 14 14 15 15 15 15 15 16 16 17 17 17 18 18 19 19 19 18 15 13 11 10 9 9 9 9 9 9 9 9 9 9 9 9 9
15 14 13 14 14 14 14 14 13 13 13 12 12 12 14 15 16 17 18 18 17 16 15 13 14 15 16 16 15 14 13 13 13 13 14 14 13 13 13 14 14 15 16 16 16 16 17 17 17 17 15 12 9 8 8 8 8 8 8 8 8 9 9 10 10 10 11 11 11
13 13 13 13 14 14 15 15 14 14 13 12 12 12 13 14 15 16 17 17 16 14 12 11 12 13 13 13 12 12 11 12 12 12 12 12 11 11 12 13 13 14 15 16 16 16 16 16 14 12 10 9 8 8 8 9 9 10 10 11 11 12 13 14 14 15 15 15 15
11 11 11 12 13 14 15 15 15 14 13 13 13 13 13 14 14 15 16 15 14 13 12 11 10 10 10 10 11 11 11 11 11 10 10 10 10 11 11 12 13 14 15 16 15 15 13 11 10 8 8 8 8 9 10 10 11 11 12 12 13 14 14 15 16 16 17 17 18
8 8 10 11 12 13 14 15 15 14 13 13 14 14 14 14 14 14 13 12 11 11 10 9 7 7 7 9 10 10 10 9 9 9 9 9 10 11 12 13 14 14 14 14 13 11 9 8 8 8 8 9 9 10 10 11 11 12 12 13 13 14 14 14 15 15 15 16 16
6 7 9 11 12 14 14 14 13 12 12 13 14 14 14 13 12 11 10 9 8 8 7 5 4 4 4 6 7 7 6 6 6 7 8 9 10 11 12 12 12 12 11 10 9 9 8 8 8 8 9 9 9 10 11 11 11 11 12 13 13 13 14 14 14 14 14 14 15
7 9 11 13 14 14 13 12 11 11 11 12 13 14 13 12 10 9 8 7 5 4 4 3 3 3 3 3 3 3 3 4 5 6 8 9 10 10 10 9 9 8 8 8 8 8 8 8 8 8 9 9 10 10 11 11 11 11 12 12 13 13 14 14 15 15 15 15 15
10 12 14 15 15 14 12 12 11 11 11 11 12 12 12 10 9 8 7 6 5 4 4 4 4 4 4 3 3 3 3 3 4 6 7 8 8 8 7 7 7 7 7 7 7 7 8 8 9 9 10 10 11 11 11 11 12 12 13 13 13 14 14 15 15 15 15 15 16
12 14 15 16 15 14 13 12 12 11 11 11 12 12 11 10 9 9 8 7 6 6 6 6 6 6 5 5 4 4 4 4 5 5 6 6 6 6 6 6 6 6 6 7 8 8 9 9 10 11 12 12 12 12 13 13 13 13 13 13 13 14 14 15 15 15 16 16 16
14 15 15 15 14 13 13 12 12 12 12 13 13 13 12 12 11 10 10 9 8 8 8 8 8 7 7 6 5 5 4 4 4 5 5 5 5 5 5 5 6 6 7 8 9 10 10 10 11 12 13 13 14 14 14 14 13 13 13 13 13 14 14 15 15 15 15 16 16
15 15 15 14 13 12 12 12 12 13 14 15 15 15 14 13 12 11 11 10 10 10 10 9 9 8 7 6 5 5 4 4 4 4 5 5 4 5 5 6 7 8 9 10 10 11 11 12 12 13 13 14 14 14 14 14 13 13 13 13 14 14 14 14 14 15 15 15 16
15 14 13 12 12 12 12 13 15 16 17 18 17 16 14 13 12 11 11 11 11 11 10 10 9 8 7 6 5 4 4 4 4 4 4 4 5 6 6 7 9 9 10 11 11 12 12 13 13 13 13 13 13 13 14 14 14 14 14 14 14 14 14 14 15 15 15 16 16
14 14 13 13 13 13 15 16 18 19 19 18 16 15 14 13 12 12 12 12 11 10 9 8 8 7 6 5 4 4 4 4 4 4 5 5 6 7 8 9 10 10 11 11 11 12 12 13 13 13 13 13 13 14 14 14 14 14 15 15 15 15 16 16 16 16 17 17 18
15 14 14 14 14 15 16 18 19 20 19 18 17 16 15 14 14 13 12 11 10 8 7 6 6 5 4 4 3 4 4 5 5 5 6 7 7 8 9 10 10 10 10 11 11 12 12 12 13 13 13 14 14 14 15 15 15 16 16 16 17 17 17 18 18 18 19 19 19
17 17 17 17 17 17 18 19 19 20 19 19 18 16 15 14 12 11 10 8 7 6 5 4 4 3 3 3 4 4 5 5 5 6 7 8 8 9 10 10 10 10 11 11 12 12 12 13 13 13 14 14 14 15 16 16 17 17 18 18 18 19 19 19 20 20 20 21 21
20 20 20 19 19 19 18 18 18 17 16 15 14 13 12 10 9 8 6 5 4 3 3 3 3 3 3 4 4 5 5 5 6 7 8 8 9 10 11 11 11 11 11 12 12 13 13 14 14 15 15 15 16 16 17 17 18 19 19 20 20 20 20 21 21 21 21 22 22
21 20 19 18 18 17 16 15 14 13 12 11 10 9 8 7 6 5 4 3 2 2 3 3 3 4 4 4 4 5 5 6 7 8 9 9 10 10 11 11 11 12 12 13 14 14 15 16 16 17 17 17 18 18 18 19 19 20 21 21 22 22 22 22 22 22 22 22 22
20 19 18 18 17 16 16 15 14 13 11 10 9 8 7 6 5 4 3 3 3 3 3 3 3 3 3 4 4 5 6 7 8 9 9 10 10 11 11 12 12 13 13 14 14 15 16 17 18 19 20 20 20 20 20 20 21 21 22 22 23 23 23 23 23 22 22 22 22
20 19 19 18 17 16 15 14 13 12 11 10 8 8 7 7 6 5 4 4 3 3 2 2 2 3 3 4 5 6 7 8 9 10 10 11 11 12 12 13 13 14 14 15 15 16 17 18 19 20 21 22 23 23 23 22 22 22 22 22 23 23 24 24 24 23 23 22 22
19 18 17 16 16 15 14 13 12 11 10 9 8 7 6 6 5 4 3 3 2 2 2 2 3 4 5 6 7 8 8 9 10 10 11 12 12 13 14 14 15 15 16 16 17 17 18 19 19 20 21 23 24 24 24 23 23 22 22 22 23 23 23 24 24 23 23 23 22
17 16 15 14 13 13 12 11 10 9 8 7 6 6 5 4 4 3 2 2 1 2 3 3 4 5 6 7 8 8 9 10 10 11 12 13 14 14 15 15 16 16 16 17 17 18 18 19 19 19 20 22 23 24 24 23 23 22 22 22 22 22 23 23 23 23 23 23 22
15 14 13 12 11 11 10 10 9 8 7 6 5 5 4 3 2 2 1 2 2 3 4 5 6 7 7 8 9 10 10 11 12 12 13 14 15 15 16 16 16 17 17 17 18 18 18 19 18 18 18 20 22 23 23 22 22 21 21 22 22 22 22 22 22 22 22 22 22
14 13 12 11 11 10 10 9 8 7 6 5 4 3 2 1 1 1 2 3 4 4 5 6 7 8 9 9 10 11 11 12 12 13 13 14 15 15 16 16 17 17 17 17 17 17 18 18 17 17 17 19 21 22 21 20 20 20 21 21 21 22 22 21 21 21 21 21 21
14 12 11 11 10 9 8 8 7 6 5 4 2 1 0 1 2 3 4 4 5 6 7 8 9 9 10 11 11 12 12 13 13 14 14 14 15 15 16 16 16 16 16 16 16 16 17 16 16 15 16 18 20 20 19 19 19 19 20 20 21 21 21 21 20 20 20 20 20
12 11 10 9 8 8 7 6 5 4 3 2 2 2 2 3 4 5 6 6 7 8 8 9 9 10 11 11 12 12 12 13 13 14 14 14 14 15 15 15 15 15 15 15 15 15 15 14 13 13 15 17 18 19 18 18 18 18 19 20 20 20 19 19 19 18 18 18 18
11 9 8 8 7 7 6 5 4 3 3 3 3 3 4 5 6 6 7 7 8 8 9 9 10 10 11 11 11 12 12 13 13 13 14 14 14 14 15 14 14 14 13 13 13 13 12 11 11 12 14 16 18 18 18 18 18 18 18 19 19 18 18 17 17 16 16 16 16
10 9 8 7 7 6 6 5 4 4 4 4 4 5 5 6 6 7 7 8 8 9 10 10 10 11 11 11 12 12 12 13 13 13 14 14 14 14 14 14 14 13 12 12 11 10 10 9 9 11 13 15 17 19 19 19 18 18 18 18 18 17 16 15 14 13 13 14 14
10 9 8 8 7 7 7 6 6 6 6 6 6 6 7 7 7 8 8 9 10 10 11 11 12 12 12 13 13 13 13 13 14 14 14 14 14 14 14 14 13 13 11 10 9 8 8 9 10 11 12 14 17 19 20 20 19 19 19 19 18 16 14 12 11 11 11 11 11
9 9 8 8 8 7 7 7 7 7 7 7 7 8 8 8 9 9 10 10 10 11 11 12 12 12 13 13 13 13 13 13 14 14 14 14 14 14 14 14 13 12 10 9 7 7 7 8 9 10 12 14 16 18 19 20 20 20 20 19 17 14 12 11 10 10 10 10 10
8 8 7 7 7 7 7 7 7 7 7 7 8 8 9 9 9 9 10 10 10 11 11 11 12 12 12 13 13 13 14 14 14 14 14 15 14 14 14 13 13 11 10 8 7 6 6 6 7 9 12 15 16 17 18 19 20 21 20 19 16 14 12 11 10 10 10 9 9
7 7 7 7 7 7 6 6 6 6 7 7 8 8 9 9 9 10 10 10 10 11 11 12 12 12 12 13 13 13 14 14 14 14 14 14 14 14 14 13 12 11 9 8 6 6 6 6 5 8 11 15 16 16 16 18 19 20 19 18 16 15 13 12 11 10 10 9 9
8 7 7 7 7 7 7 7 7 7 8 8 9 9 9 9 10 10 11 11 11 12 12 12 12 13 13 13 13 13 13 13 14 14 14 14 14 14 13 13 12 11 9 8 7 7 8 8 6 7 10 14 15 16 16 17 18 18 17 16 16 15 15 13 12 11 11 10 10
9 9 8 8 8 8 8 8 9 9 9 9 10 10 10 11 11 11 12 12 12 12 12 13 13 13 13 13 13 13 13 13 13 13 13 13 14 13 13 12 12 11 10 9 8 8 9 8 7 8 10 13 15 16 16 16 16 16 16 16 15 15 13 13 12 13 13 13 13
10 9 9 9 9 9 9 10 10 10 10 10 11 11 11 12 12 12 12 12 12 13 13 13 13 13 13 13 12 12 12 12 12 12 13 13 13 12 12 12 11 11 10 9 8 8 8 8 8 8 10 13 14 15 15 14 15 15 16 16 14 13 12 13 14 15 16 17 17
Wind_Direction
230 235 238 239 234 230 228 229 229 228 224 219 214 213 212 210 208 206 202 201 207 215 222 226 229 228 226 225 224 222 221 220 220 221 223 224 225 229 233 238 242 247 251 257 265 273 279 282 283 284 283 283 282 281 280 280 279 279 279 279 278 277 276 274 273 272 271 270 268
223 227 228 228 226 225 225 227 229 227 223 218 213 211 210 209 207 205 204 206 213 218 222 222 223 224 223 222 221 220 220 222 223 224 226 227 230 232 234 237 241 246 251 259 268 275 279 281 281 281 280 280 280 279 279 279 280 280 280 280 280 279 278 278 277 276 275 274 273
214 216 218 219 221 222 223 226 228 227 224 218 212 209 209 210 208 206 206 209 215 216 214 212 212 214 216 218 218 219 220 222 224 226 228 230 233 234 236 237 240 245 253 262 270 275 277 277 278 278 279 281 282 283 285 287 289 289 288 287 287 287 287 286 284 283 281 280 278
205 206 210 215 219 220 220 223 226 227 224 219 214 211 211 212 209 208 208 212 213 211 208 207 207 207 208 211 214 216 217 220 222 225 228 230 231 233 236 239 244 251 259 266 271 273 275 278 281 286 291 295 300 303 305 305 306 305 302 300 299 299 297 295 292 289 286 282 279
198 199 205 212 216 218 218 219 221 222 221 218 216 214 213 213 211 210 210 211 209 208 209 211 210 206 203 206 209 212 215 218 222 224 227 229 232 237 243 249 257 263 268 272 277 282 287 293 299 305 310 314 318 319 319 317 316 315 312 308 305 302 299 293 287 282 276 271 267
194 193 200 209 215 217 217 216 216 216 216 215 215 214 213 212 212 212 212 211 211 212 214 215 210 205 202 205 209 212 216 219 223 226 230 235 242 250 258 264 269 274 280 287 294 300 305 310 314 316 317 318 318 317 316 316 317 316 312 307 301 297 290 281 274 268 262 257 254
190 190 198 209 218 222 222 218 216 216 215 213 212 213 213 213 215 216 217 217 216 215 215 213 206 202 203 208 212 215 219 223 228 233 240 248 256 263 269 275 282 291 299 305 310 313 314 316 317 316 314 313 314 313 312 312 312 310 307 301 295 288 280 272 268 264 261 260 258
186 190 201 211 220 229 234 231 225 221 220 218 216 215 216 217 218 218 218 217 216 215 213 207 201 201 207 212 215 219 224 230 238 246 255 262 268 275 283 293 302 308 312 313 315 315 314 313 312 311 310 309 309 308 306 305 304 303 300 295 290 285 278 273 273 274 275 275 275
186 192 203 212 219 228 237 241 236 228 224 224 222 221 220 220 219 216 214 214 214 213 208 201 200 206 212 216 220 226 233 242 253 261 267 274 283 294 303 309 313 314 313 310 310 309 309 308 308 308 306 304 299 293 291 292 294 294 294 291 290 289 287 285 284 283 281 280 278
188 195 204 212 218 225 234 242 242 233 224 222 224 225 223 221 217 215 215 216 219 218 213 207 207 212 217 223 229 237 247 256 264 273 283 293 303 309 313 312 310 308 306 303 302 303 303 303 303 301 296 290 283 282 285 290 293 294 294 294 294 293 292 291 290 288 287 285 284
186 198 206 211 218 224 232 240 243 236 225 219 222 225 225 223 222 221 221 223 226 226 224 220 216 217 222 230 238 247 256 265 276 288 300 308 311 310 309 305 303 301 300 299 298 298 297 294 288 279 275 278 280 285 291 295 296 297 297 297 296 295 293 293 292 291 290 290 290
185 201 209 211 220 226 231 238 239 233 223 218 220 224 226 225 224 223 222 223 225 226 225 223 218 218 226 236 245 254 263 276 290 302 308 309 306 304 302 300 299 298 298 297 295 292 285 274 268 268 273 278 284 288 292 294 295 295 295 295 294 293 292 291 291 291 292 293 293
201 213 217 215 220 225 229 232 230 224 218 216 218 222 224 222 217 213 212 217 221 220 216 208 201 206 225 240 250 260 273 287 297 301 301 299 297 296 296 296 296 296 294 291 286 279 271 268 269 273 278 283 284 285 285 286 287 289 290 290 290 290 291 291 292 292 293 295 296
219 225 223 218 217 220 223 224 223 219 216 216 219 220 218 211 202 199 202 206 203 197 183 166 165 178 202 222 238 252 268 278 284 285 286 285 285 287 288 288 287 284 279 275 270 268 268 273 276 279 280 281 280 278 278 279 282 283 285 286 287 289 290 291 293 294 296 298 299
224 226 221 214 213 215 220 224 223 221 218 217 219 216 208 196 186 183 182 178 170 167 162 153 154 162 171 178 187 202 221 240 254 265 271 274 275 275 273 270 266 263 262 263 265 268 272 277 280 280 280 278 277 277 278 279 281 283 284 286 289 290 292 293 294 295 297 298 299
224 219 211 205 206 212 218 222 224 223 219 214 210 201 190 178 170 166 163 160 161 160 158 154 156 159 163 166 173 185 202 218 235 246 251 252 250 248 248 248 252 256 262 266 270 272 274 277 278 279 279 279 280 281 282 283 284 285 287 289 291 292 293 293 294 294 295 296 296
215 206 197 193 198 205 211 215 218 216 210 203 194 182 170 163 160 158 158 157 155 153 153 156 159 161 163 165 171 181 194 206 215 219 220 219 222 228 236 246 257 265 269 271 273 274 275 277 278 279 280 282 283 284 284 285 287 288 290 290 291 291 291 291 292 292 292 293 293
197 189 184 184 189 197 202 203 201 195 188 181 175 166 159 156 156 156 155 151 148 150 154 159 161 162 162 163 168 176 183 188 194 201 207 215 225 237 249 260 266 270 272 274 275 277 279 280 281 281 282 283 284 286 287 288 289 289 289 288 287 287 287 288 288 289 289 290 290
179 175 173 175 179 184 185 181 176 170 166 163 160 156 153 152 151 149 145 143 145 151 157 160 160 158 157 157 161 166 173 180 193 207 220 232 243 253 260 265 267 269 271 273 276 278 279 281 282 282 283 285 286 287 287 287 287 287 286 285 285 284 284 284 284 285 285 286 286
163 162 162 164 168 171 171 167 161 155 152 149 147 144 142 140 139 139 139 141 144 149 154 155 154 151 150 152 157 169 184 199 214 226 237 246 254 259 263 266 267 268 270 272 275 276 277 278 280 281 282 283 284 284 284 284 284 284 283 284 283 283 283 283 283 283 283 283 283
148 147 148 150 155 159 160 156 149 142 137 134 131 130 130 131 133 135 137 138 139 142 146 147 148 149 153 161 177 197 212 222 230 239 248 256 261 264 266 267 269 271 273 275 275 276 277 278 278 279 280 280 281 281 282 282 283 283 283 283 283 284 284 284 284 284 284 284 284
136 135 136 139 143 147 147 144 137 132 129 128 128 128 130 132 134 134 133 133 136 140 146 150 156 166 178 194 210 223 232 238 245 252 259 265 268 271 272 274 276 278 279 279 280 280 280 280 281 281 281 281 282 283 283 284 284 284 284 284 284 284 284 285 285 285 286 286 286
128 129 131 134 137 138 136 132 128 127 126 126 126 128 129 130 129 129 129 133 141 153 167 182 198 209 217 225 232 241 251 260 265 269 272 274 277 278 279 280 282 284 284 284 285 285 286 286 285 285 285 285 285 285 286 286 286 287 286 286 285 285 284 285 285 286 286 286 287
120 121 123 124 124 121 117 114 112 112 111 109 107 109 112 113 113 115 123 136 160 184 202 214 223 229 235 242 251 262 271 278 280 281 281 281 280 281 282 283 284 284 285 286 288 289 289 289 289 288 288 287 286 286 286 287 287 288 288 287 287 286 285 285 285 285 285 286 286
106 106 106 105 104 103 103 103 104 105 104 104 104 108 113 116 122 132 149 168 185 198 208 217 228 239 253 265 275 280 283 284 285 285 284 283 281 281 281 282 283 284 285 287 288 290 290 290 291 291 290 289 287 286 286 286 287 287 288 288 288 287 287 286 285 285 285 285 285
99 100 101 103 105 107 109 111 112 113 115 118 123 127 130 133 140 150 164 176 185 194 206 227 251 268 278 284 287 288 287 286 285 284 283 282 282 282 282 283 284 285 287 289 290 291 292 292 293 293 293 291 289 288 287 287 287 288 289 289 289 289 289 288 287 286 286 285 285
104 106 108 111 112 113 113 113 114 115 119 123 128 130 131 132 139 150 163 175 187 208 243 265 277 283 286 287 288 287 287 286 285 284 283 283 283 284 285 286 287 289 290 292 292 293 293 294 294 295 294 293 291 290 290 291 291 291 291 291 290 290 290 290 290 289 288 287 286
107 108 110 112 111 111 111 112 114 116 119 122 124 124 125 129 139 154 172 196 228 255 266 273 279 283 285 285 285 285 285 285 284 285 285 286 287 288 289 290 292 293 294 295 295 295 295 295 296 297 296 294 292 291 292 293 294 294 294 293 293 292 292 292 292 292 291 290 289
111 112 113 114 113 113 114 116 118 119 121 122 122 123 125 134 150 179 216 246 261 269 273 278 283 286 286 287 287 287 287 287 288 289 290 291 291 292 293 294 295 296 297 297 297 297 296 296 297 297 296 293 292 292 294 296 297 297 297 296 296 295 295 295 294 294 293 293 292
116 118 118 118 118 118 118 119 118 118 118 117 116 119 127 150 203 251 270 279 284 287 290 293 294 295 295 294 294 294 294 294 294 295 295 295 295 295 295 296 297 298 298 298 299 298 298 298 299 298 294 291 292 294 297 299 301 301 302 301 300 300 299 298 297 296 295 294 293
115 116 117 117 117 115 113 111 109 107 105 102 99 90 34 311 305 305 305 306 306 305 305 305 305 304 303 302 301 301 301 300 299 298 298 297 297 297 298 298 299 300 301 301 301 301 300 300 301 299 295 292 294 297 301 304 306 307 307 307 307 306 304 303 301 300 298 296 295
109 110 110 110 108 105 101 97 93 87 78 63 36 358 335 325 322 320 317 315 314 312 310 309 308 306 305 305 305 304 304 303 303 302 301 301 301 301 302 302 303 304 305 305 304 304 305 306 307 304 300 298 300 303 306 309 312 314 315 315 314 314 312 310 307 304 302 299 298
102 102 100 97 94 89 85 79 70 56 37 14 354 340 333 329 325 322 319 316 314 313 311 309 309 308 308 309 309 310 309 309 309 309 308 308 308 308 308 308 309 310 311 311 311 311 313 316 317 313 309 309 310 311 312 315 318 321 322 323 323 322 320 317 315 311 308 305 302
87 84 80 76 71 66 60 52 41 26 10 355 345 339 336 334 331 328 325 322 321 320 319 318 318 319 319 320 321 321 321 319 318 318 317 317 316 316 316 316 317 318 319 319 320 322 326 329 329 325 322 321 320 320 320 322 324 328 330 332 332 331 329 327 325 322 319 316 312
66 61 57 52 48 43 37 29 20 10 360 352 347 345 344 342 341 338 336 335 334 333 331 330 331 331 331 330 330 329 328 326 325 323 322 321 321 321 321 321 323 324 324 325 329 333 339 344 344 337 330 327 326 326 326 328 330 332 335 336 337 339 341 342 343 342 339 335 329
51 46 41 37 33 28 24 18 11 3 357 353 351 350 349 348 347 346 345 344 342 339 337 336 335 335 334 333 332 331 329 328 327 325 324 323 324 324 324 325 327 327 327 327 333 340 348 356 356 346 335 330 330 330 329 330 331 333 335 337 341 347 354 0 4 4 1 356 350
44 39 35 31 28 24 20 14 8 2 358 356 355 355 354 353 352 350 348 346 344 340 337 336 336 334 334 334 334 332 330 329 328 327 326 326 326 327 328 328 329 329 328 328 334 343 351 358 3 353 343 338 336 333 330 330 331 332 335 338 344 353 2 9 11 11 8 3 358
47 42 38 34 32 28 24 19 13 9 6 4 2 1 358 356 354 352 349 347 344 341 338 337 336 336 336 336 336 334 333 331 330 330 329 329 330 331 331 331 331 330 329 327 334 342 347 346 360 2 354 345 338 333 330 329 330 332 337 343 351 358 4 6 5 2 359 355 352
52 48 44 41 38 34 30 25 20 17 14 11 8 5 2 358 356 354 351 348 345 343 340 339 338 338 338 339 339 337 336 334 333 333 333 334 334 335 335 334 331 330 327 325 330 340 344 341 349 1 359 347 337 330 327 327 330 336 344 353 359 3 2 358 352 345 341 339 338
53 50 46 42 39 34 30 26 22 19 16 12 9 6 3 0 358 355 352 349 346 343 342 341 340 340 340 341 341 339 338 336 336 337 338 338 338 337 337 335 331 328 325 321 325 336 345 347 353 1 357 344 334 327 325 329 337 347 355 1 4 4 359 350 337 329 326 326 325
49 46 43 39 35 31 26 23 21 17 14 10 8 5 3 0 358 355 352 349 346 344 343 342 341 341 342 342 342 341 340 339 339 341 342 343 341 340 338 336 332 328 324 321 323 336 349 356 3 4 355 343 332 327 331 344 355 0 2 2 3 360 352 338 326 320 319 320 319
Height
1447 1448 1449 1450 1450 1451 1451 1451 1452 1453 1454 1454 1455 1456 1457 1457 1458 1459 1460 1461 1462 1462 1463 1464 1465 1465 1466 1468 1469 1470 1470 1470 1471 1471 1472 1472 1473 1474 1474 1475 1475 1475 1475 1476 1476 1476 1477 1477 1477 1478 1478 1478 1478 1478 1477 1477 1477 1477 1476 1476 1476 1475 1475 1475 1474 1474 1474 1473 1473
1446 1448 1449 1449 1449 1449 1450 1451 1452 1452 1453 1454 1455 1455 1456 1457 1458 1459 1460 1460 1461 1462 1463 1463 1464 1465 1466 1467 1467 1468 1469 1469 1470 1470 1471 1471 1472 1472 1473 1474 1474 1475 1475 1475 1475 1476 1476 1476 1476 1476 1476 1476 1476 1476 1475 1475 1475 1474 1474 1474 1473 1473 1473 1472 1471 1471 1471 1470 1470
1445 1446 1447 1447 1447 1448 1449 1450 1451 1452 1452 1453 1454 1455 1456 1457 1458 1459 1459 1460 1460 1461 1462 1463 1464 1464 1465 1465 1466 1467 1468 1468 1469 1470 1470 1470 1471 1471 1472 1473 1473 1474 1474 1475 1475 1475 1475 1475 1475 1475 1475 1475 1474 1474 1473 1472 1472 1471 1471 1471 1471 1470 1470 1470 1469 1469 1468 1468 1468
1444 1445 1445 1445 1447 1448 1449 1450 1451 1451 1452 1452 1454 1455 1456 1457 1457 1458 1459 1459 1460 1460 1461 1462 1463 1464 1464 1465 1465 1466 1467 1468 1468 1469 1469 1470 1470 1471 1471 1472 1472 1473 1473 1474 1474 1474 1474 1474 1473 1473 1472 1472 1471 1470 1470 1469 1469 1469 1468 1468 1468 1468 1468 1468 1467 1467 1467 1466 1466
1442 1443 1444 1445 1446 1448 1448 1449 1450 1450 1451 1452 1453 1454 1455 1456 1457 1458 1458 1459 1460 1460 1461 1462 1462 1463 1463 1464 1464 1465 1466 1467 1467 1468 1468 1469 1470 1470 1470 1470 1471 1472 1472 1472 1472 1472 1471 1471 1470 1470 1469 1468 1468 1467 1466 1466 1466 1466 1466 1466 1466 1466 1466 1466 1466 1466 1466 1465 1465
1440 1441 1443 1445 1446 1447 1448 1448 1449 1450 1451 1452 1453 1454 1455 1456 1457 1457 1458 1459 1459 1460 1460 1462 1462 1462 1462 1463 1464 1464 1465 1466 1466 1467 1467 1468 1468 1469 1469 1470 1470 1470 1470 1470 1470 1469 1468 1468 1467 1467 1466 1466 1466 1465 1465 1465 1465 1465 1465 1465 1465 1465 1465 1466 1465 1465 1465 1465 1464
1439 1440 1443 1445 1446 1447 1447 1448 1448 1449 1450 1451 1452 1454 1455 1455 1456 1457 1458 1459 1459 1460 1460 1461 1461 1461 1461 1462 1463 1464 1464 1465 1465 1466 1466 1467 1467 1468 1468 1468 1468 1468 1467 1467 1467 1467 1466 1466 1466 1466 1465 1465 1465 1465 1465 1465 1465 1465 1465 1465 1465 1465 1465 1465 1465 1465 1465 1464 1464
1439 1440 1443 1444 1445 1446 1447 1447 1448 1449 1450 1451 1452 1453 1454 1455 1456 1457 1458 1459 1459 1460 1460 1460 1460 1460 1461 1462 1462 1463 1463 1464 1464 1465 1465 1466 1466 1466 1466 1466 1465 1465 1465 1465 1465 1466 1466 1466 1465 1465 1465 1465 1465 1465 1465 1465 1465 1465 1465 1465 1465 1465 1465 1465 1465 1464 1464 1464 1463
1439 1441 1443 1444 1445 1446 1447 1447 1448 1449 1450 1450 1452 1453 1454 1454 1455 1456 1457 1458 1459 1460 1460 1460 1460 1460 1461 1461 1462 1462 1462 1463 1463 1464 1465 1465 1465 1465 1464 1464 1464 1465 1465 1465 1465 1465 1465 1465 1465 1464 1464 1464 1464 1465 1465 1465 1465 1465 1465 1465 1465 1465 1464 1464 1464 1464 1463 1463 1462
1439 1441 1443 1445 1445 1446 1447 1448 1448 1449 1450 1450 1452 1452 1453 1454 1455 1456 1457 1458 1459 1459 1459 1459 1459 1460 1460 1460 1461 1461 1461 1462 1463 1463 1464 1463 1463 1463 1463 1464 1464 1465 1465 1465 1465 1464 1464 1464 1464 1463 1463 1464 1464 1464 1464 1464 1464 1464 1464 1464 1464 1464 1463 1463 1463 1463 1462 1462 1461
1440 1441 1443 1444 1445 1446 1447 1448 1448 1449 1449 1450 1451 1452 1453 1454 1455 1456 1457 1457 1458 1458 1458 1458 1458 1459 1459 1460 1460 1460 1461 1462 1462 1462 1462 1462 1462 1463 1463 1464 1464 1464 1464 1464 1464 1464 1463 1463 1463 1463 1463 1463 1464 1464 1464 1464 1463 1463 1463 1463 1462 1462 1462 1462 1462 1461 1461 1461 1460
1440 1442 1443 1444 1445 1446 1447 1448 1448 1449 1449 1450 1451 1452 1453 1454 1455 1455 1456 1456 1457 1457 1458 1458 1458 1458 1459 1459 1460 1460 1461 1461 1461 1461 1461 1462 1462 1463 1463 1463 1463 1463 1463 1463 1463 1463 1463 1463 1463 1463 1463 1463 1463 1463 1463 1462 1462 1462 1462 1461 1461 1461 1461 1461 1460 1460 1460 1459 1459
1440 1442 1443 1444 1445 1446 1447 1448 1448 1449 1449 1450 1451 1452 1453 1454 1455 1455 1455 1456 1456 1457 1457 1457 1458 1458 1458 1458 1459 1460 1460 1460 1460 1460 1461 1461 1462 1462 1462 1462 1462 1462 1462 1462 1462 1462 1462 1462 1462 1462 1462 1462 1462 1462 1461 1461 1461 1461 1461 1460 1460 1460 1460 1460 1459 1459 1458 1458 1457
1441 1442 1443 1444 1445 1446 1447 1448 1448 1449 1449 1450 1451 1452 1453 1454 1454 1454 1455 1455 1456 1456 1457 1457 1457 1457 1458 1458 1459 1459 1459 1459 1460 1460 1461 1461 1461 1461 1461 1461 1462 1462 1462 1462 1462 1462 1462 1462 1461 1461 1461 1461 1461 1461 1460 1460 1460 1460 1460 1460 1460 1459 1459 1459 1458 1458 1457 1456 1456
1442 1443 1443 1444 1445 1445 1446 1447 1448 1449 1449 1450 1451 1452 1452 1453 1453 1454 1454 1455 1455 1456 1456 1456 1457 1457 1458 1458 1458 1458 1458 1459 1459 1460 1460 1460 1460 1460 1460 1461 1461 1461 1461 1461 1461 1461 1461 1461 1461 1460 1460 1460 1460 1460 1460 1459 1459 1459 1459 1458 1458 1458 1458 1457 1457 1456 1456 1455 1455
1442 1443 1443 1444 1445 1445 1446 1447 1448 1449 1449 1450 1451 1451 1452 1452 1453 1453 1454 1454 1455 1456 1456 1457 1457 1457 1457 1457 1457 1458 1458 1458 1458 1459 1459 1460 1460 1460 1460 1460 1460 1461 1461 1461 1461 1460 1460 1460 1460 1460 1460 1460 1459 1459 1459 1458 1458 1458 1458 1457 1457 1457 1456 1456 1456 1455 1455 1454 1453
1442 1443 1443 1444 1445 1445 1446 1447 1448 1448 1449 1450 1451 1451 1451 1452 1453 1453 1454 1454 1455 1456 1456 1457 1458 1458 1457 1457 1457 1457 1457 1457 1458 1458 1459 1459 1459 1459 1459 1460 1460 1460 1460 1460 1460 1460 1459 1459 1459 1459 1459 1459 1458 1458 1458 1458 1457 1457 1457 1456 1456 1456 1455 1455 1455 1454 1453 1453 1452
1442 1443 1443 1444 1445 1445 1446 1447 1448 1448 1449 1450 1450 1451 1451 1452 1453 1453 1454 1454 1455 1456 1457 1458 1458 1457 1457 1456 1456 1456 1456 1457 1457 1458 1458 1458 1458 1458 1458 1458 1459 1459 1459 1459 1459 1459 1459 1458 1458 1458 1458 1457 1457 1457 1457 1456 1456 1456 1456 1455 1455 1455 1454 1454 1453 1453 1452 1451 1451
1442 1443 1443 1444 1445 1445 1446 1447 1447 1448 1449 1449 1450 1450 1451 1452 1453 1454 1454 1455 1456 1457 1458 1458 1457 1457 1456 1456 1455 1456 1456 1456 1457 1457 1457 1458 1457 1457 1457 1457 1458 1458 1459 1458 1458 1458 1458 1457 1457 1457 1457 1456 1456 1456 1455 1455 1455 1455 1455 1454 1454 1454 1453 1453 1452 1451 1451 1450 1450
1442 1443 1444 1444 1445 1445 1446 1446 1447 1447 1448 1449 1450 1451 1452 1453 1454 1455 1456 1457 1458 1458 1458 1457 1456 1456 1455 1455 1455 1455 1456 1457 1457 1457 1457 1457 1456 1456 1456 1457 1457 1458 1458 1458 1457 1457 1457 1456 1456 1456 1455 1455 1455 1455 1454 1454 1454 1453 1453 1453 1452 1452 1452 1451 1450 1450 1449 1449 1448
1443 1443 1444 1444 1445 1445 1446 1446 1447 1448 1449 1450 1451 1452 1453 1454 1455 1456 1457 1457 1457 1457 1457 1456 1456 1455 1455 1455 1455 1455 1456 1457 1457 1456 1456 1456 1456 1456 1456 1457 1457 1457 1457 1456 1456 1456 1455 1455 1455 1455 1454 1454 1454 1453 1453 1453 1452 1452 1451 1451 1451 1450 1450 1450 1449 1449 1448 1447 1446
1444 1444 1445 1445 1446 1446 1447 1448 1449 1450 1450 1451 1452 1453 1454 1455 1456 1456 1456 1457 1457 1456 1456 1456 1455 1455 1455 1455 1455 1456 1456 1456 1456 1455 1455 1455 1455 1455 1455 1456 1456 1456 1456 1456 1455 1455 1455 1454 1454 1453 1453 1453 1452 1452 1451 1451 1450 1450 1450 1449 1449 1449 1449 1448 1447 1447 1446 1445 1445
1444 1445 1446 1446 1447 1448 1449 1450 1450 1451 1452 1453 1454 1454 1455 1455 1455 1456 1456 1456 1456 1456 1456 1456 1455 1455 1455 1455 1456 1456 1456 1455 1455 1455 1454 1454 1454 1455 1455 1455 1455 1455 1455 1455 1454 1454 1453 1453 1452 1452 1451 1451 1450 1450 1450 1449 1449 1448 1448 1447 1447 1447 1447 1446 1446 1445 1444 1444 1443
1445 1445 1446 1447 1447 1448 1449 1450 1451 1452 1452 1453 1454 1454 1455 1455 1455 1455 1456 1456 1456 1456 1456 1456 1456 1456 1456 1456 1456 1455 1455 1455 1454 1454 1454 1454 1454 1455 1455 1455 1455 1455 1454 1454 1453 1453 1452 1451 1451 1450 1450 1449 1449 1448 1448 1448 1447 1446 1446 1445 1445 1445 1445 1445 1444 1443 1443 1442 1441
1445 1446 1447 1448 1448 1449 1450 1451 1451 1452 1453 1454 1454 1455 1455 1455 1455 1456 1456 1456 1456 1456 1456 1456 1456 1456 1455 1455 1455 1455 1454 1454 1454 1453 1453 1454 1454 1454 1454 1454 1454 1453 1453 1452 1452 1451 1451 1450 1449 1449 1448 1447 1447 1446 1446 1446 1445 1445 1444 1444 1443 1443 1442 1442 1442 1441 1441 1440 1439
1448 1448 1449 1450 1450 1451 1452 1452 1452 1453 1453 1454 1455 1455 1455 1455 1455 1456 1456 1456 1456 1456 1456 1455 1455 1455 1455 1454 1454 1454 1454 1453 1453 1453 1453 1453 1453 1453 1453 1453 1453 1452 1452 1451 1450 1450 1449 1449 1448 1447 1446 1445 1445 1444 1444 1444 1444 1443 1443 1442 1441 1441 1440 1440 1440 1439 1439 1438 1437
1450 1450 1451 1451 1452 1452 1452 1453 1453 1453 1454 1455 1455 1455 1455 1455 1455 1455 1456 1456 1455 1455 1455 1455 1455 1454 1454 1454 1453 1453 1453 1453 1453 1453 1453 1453 1453 1452 1452 1452 1451 1451 1450 1450 1449 1449 1448 1447 1446 1446 1445 1443 1442 1442 1442 1442 1442 1442 1441 1440 1440 1439 1438 1438 1437 1437 1436 1436 1435
1451 1452 1452 1452 1452 1453 1453 1453 1454 1454 1454 1455 1455 1455 1455 1455 1455 1455 1455 1455 1455 1455 1454 1454 1454 1453 1453 1453 1453 1453 1452 1452 1452 1452 1452 1452 1451 1451 1451 1450 1450 1450 1449 1448 1448 1447 1446 1446 1445 1445 1443 1441 1440 1440 1441 1441 1440 1440 1440 1439 1438 1437 1437 1436 1435 1435 1434 1434 1433
1452 1453 1453 1453 1453 1453 1454 1454 1454 1455 1455 1455 1455 1455 1455 1455 1455 1455 1455 1455 1455 1454 1454 1453 1453 1453 1452 1452 1452 1452 1452 1452 1451 1451 1451 1451 1450 1450 1450 1449 1449 1448 1447 1447 1446 1446 1445 1444 1444 1443 1442 1440 1439 1439 1439 1439 1439 1438 1438 1437 1436 1435 1435 1434 1433 1433 1432 1431 1431
1453 1454 1454 1454 1454 1454 1454 1455 1455 1455 1455 1455 1455 1455 1455 1455 1455 1455 1455 1454 1454 1454 1453 1453 1452 1452 1452 1452 1451 1451 1451 1451 1451 1450 1450 1450 1449 1449 1448 1448 1447 1447 1446 1445 1445 1444 1444 1443 1442 1441 1440 1438 1437 1438 1438 1438 1438 1437 1436 1435 1435 1434 1433 1432 1432 1431 1430 1429 1429
1454 1454 1454 1454 1454 1455 1455 1455 1455 1455 1455 1455 1455 1455 1455 1455 1455 1454 1454 1454 1453 1453 1453 1452 1452 1452 1451 1451 1451 1451 1450 1450 1450 1450 1449 1449 1448 1447 1447 1446 1446 1445 1445 1444 1444 1443 1442 1441 1441 1440 1438 1437 1436 1437 1437 1437 1436 1435 1435 1434 1433 1432 1431 1431 1430 1429 1429 1428 1427
1454 1455 1455 1455 1455 1455 1455 1455 1455 1455 1455 1455 1455 1455 1455 1454 1454 1454 1453 1453 1453 1452 1452 1452 1452 1451 1451 1451 1450 1450 1450 1450 1449 1448 1448 1447 1446 1446 1445 1445 1444 1444 1443 1443 1442 1441 1441 1440 1439 1438 1437 1436 1436 1436 1436 1436 1435 1435 1434 1433 1432 1431 1430 1429 1429 1428 1427 1426 1425
1455 1455 1455 1455 1455 1455 1455 1455 1455 1455 1455 1455 1455 1455 1454 1454 1454 1453 1453 1453 1452 1452 1452 1451 1451 1451 1451 1450 1450 1450 1449 1448 1448 1447 1446 1445 1445 1444 1444 1443 1443 1443 1442 1441 1441 1440 1440 1439 1438 1437 1436 1435 1435 1435 1435 1435 1434 1434 1433 1432 1431 1430 1429 1428 1427 1426 1425 1425 1424
1455 1455 1455 1455 1455 1455 1455 1455 1455 1455 1455 1455 1455 1454 1454 1454 1453 1453 1453 1452 1452 1451 1451 1451 1450 1450 1450 1449 1449 1448 1448 1447 1446 1445 1445 1444 1443 1443 1442 1442 1441 1441 1441 1440 1440 1439 1439 1438 1438 1437 1436 1435 1435 1434 1433 1433 1433 1433 1432 1431 1430 1429 1428 1427 1426 1425 1424 1423 1423
1455 1455 1455 1455 1455 1455 1455 1455 1455 1455 1454 1454 1454 1454 1453 1453 1453 1452 1452 1451 1451 1450 1450 1450 1450 1449 1449 1448 1448 1447 1446 1445 1445 1444 1443 1443 1442 1442 1441 1441 1440 1440 1440 1439 1439 1438 1438 1438 1437 1437 1436 1435 1434 1433 1432 1432 1432 1431 1431 1430 1429 1428 1427 1426 1425 1424 1423 1423 1422
1455 1455 1455 1455 1455 1455 1455 1455 1454 1454 1454 1454 1453 1453 1453 1452 1452 1452 1451 1451 1450 1450 1450 1449 1449 1448 1448 1447 1446 1446 1445 1444 1444 1443 1442 1442 1441 1441 1440 1440 1439 1439 1438 1438 1438 1437 1437 1437 1437 1437 1436 1435 1434 1432 1431 1431 1430 1430 1430 1429 1428 1427 1426 1425 1425 1424 1423 1422 1421
1456 1456 1455 1455 1455 1455 1455 1455 1455 1454 1454 1454 1453 1453 1453 1452 1452 1452 1451 1451 1450 1450 1449 1449 1448 1448 1447 1446 1445 1445 1444 1443 1443 1442 1441 1441 1440 1440 1439 1439 1438 1438 1437 1437 1437 1437 1436 1437 1437 1437 1436 1434 1433 1432 1430 1430 1430 1429 1429 1428 1427 1427 1426 1425 1424 1423 1422 1422 1421
1456 1456 1456 1456 1456 1456 1455 1455 1455 1455 1454 1454 1453 1453 1453 1452 1452 1451 1451 1450 1450 1449 1449 1448 1447 1447 1446 1445 1445 1444 1443 1443 1442 1441 1440 1440 1439 1439 1438 1437 1437 1437 1436 1436 1436 1436 1436 1436 1436 1436 1435 1434 1433 1431 1430 1429 1429 1429 1428 1427 1426 1426 1425 1425 1424 1423 1422 1421 1420
1457 1457 1457 1456 1456 1456 1456 1455 1455 1455 1454 1454 1453 1453 1452 1452 1451 1451 1450 1450 1449 1449 1448 1447 1446 1446 1445 1445 1444 1443 1443 1442 1441 1440 1440 1439 1438 1438 1437 1437 1436 1436 1436 1435 1435 1435 1435 1435 1435 1435 1435 1434 1432 1430 1429 1429 1429 1429 1428 1427 1426 1425 1425 1424 1423 1422 1422 1421 1420
1457 1457 1457 1456 1456 1456 1455 1455 1455 1454 1454 1453 1453 1452 1452 1451 1451 1450 1450 1449 1449 1448 1447 1446 1446 1445 1445 1444 1444 1443 1442 1441 1440 1440 1439 1438 1437 1437 1436 1436 1435 1435 1435 1435 1435 1434 1434 1434 1434 1434 1434 1434 1431 1430 1429 1429 1429 1428 1427 1426 1425 1425 1424 1423 1422 1422 1421 1420 1420
1457 1457 1457 1457 1456 1456 1455 1455 1455 1454 1454 1453 1452 1452 1451 1451 1450 1450 1449 1448 1448 1447 1446 1446 1445 1445 1444 1443 1443 1442 1441 1440 1440 1439 1438 1437 1437 1436 1436 1435 1435 1435 1434 1434 1434 1434 1434 1434 1434 1434 1434 1433 1431 1430 1430 1429 1429 1428 1427 1426 1425 1425 1423 1422 1421 1421 1421 1420 1420